Zurück zum Katalog

THORAD DELTA 1 DEB

AktivSSO
NORAD 8596·DEBRIS·🇺🇸 United States

Gestartet Nov 15, 1974 von Vandenberg Space Force Base

Loading…

Nächste Überflüge (nächste 24 Stunden)

TLE

AktuellSource: Space-Track

Epoche: Sep 13, 2026, 13:47 UTC

1  8596U 74089DK  26256.57475111  .00000001  00000-0  23810-3 0  9996
2  8596 101.7543 130.1906 0087962 133.6628 294.2551 12.68844590398030

Verfolge THORAD DELTA 1 DEB in Echtzeit mit AllMySat

Download on the App Store